Location: *
(35.8942°N, 23.3025°E)
Time: 18:04:20
(UTC+00:00)

Gurwin Techsat 1B - Pass Details

Date: 10 April 2023
Orbit: 811 x 813 km, 98.9° (Epoch: 03 June)

Event Time Altitude Azimuth Distance (km) Brightness Sun altitude
Rises 00:16:07 0° 30° (NNE) 3,342 12.7 -39.5°
Reaches altitude 10° 00:19:03 10° 46° (NE) 2,406 11.7 -39.2°
Enters shadow 00:21:42 19° 75° (ENE) 1,839 10.8 -38.8°
